Location: Norton
(51.3000°N, 0.8167°E)
Time: 11:18:43
(UTC+00:00)

Cosmos 2369 Rocket - Pass Details

Date: 03 March 2021
Orbit: 829 x 852 km, 71.0° (Epoch: 16 April)

Event Time Altitude Azimuth Distance (km) Brightness Sun altitude
Rises 21:27:20 0° 331° (NNW) 3,384 6.2 -34.2°
Reaches altitude 10° 21:29:58 10° 340° (NNW) 2,448 5.2 -34.5°
Enters shadow 21:32:53 27° 3° (N) 1,565 3.8 -34.8°
